Weather History for Escanaba, MI

Change the Weather History Date:

Monday, January 30, 2012

  Actual Average Record
Temperature  
Mean Temperature 15 °F -  
Max Temperature 32 °F 26 °F 40 °F (1990)
Min Temperature 0 °F 5 °F -22 °F (1951)
Degree Days  
Heating Degree Days 50    
Moisture  
Dew Point 9 °F    
Average Humidity 74    
Maximum Humidity 80    
Minimum Humidity 66    
Precipitation  
Precipitation 0.00 in - - ()
Sea Level Pressure  
Sea Level Pressure 29.96 in    
Wind  
Wind Speed 6 mph (SE)    
Max Wind Speed 20 mph    
Max Gust Speed 24 mph    
Visibility 8 miles    
Events      
Averages and records for this station are not official NWS values.
T = Trace of Precipitation, MM = Missing Value Source: NWS Daily Summary

Daily Weather History Graph

Daily Weather History Graph

Search for Another Location

Airport:

Trip Planner

Search our weather history database for the weather conditions in past years. The results will help you decide how hot, cold, wet, or windy it might be!

Date:

Astronomy

Jan. 30, 2012 Rise Set
Actual Time 8:12 AM EST 5:50 PM EST
Civil Twilight 7:40 AM EST 6:22 PM EST
Nautical Twilight 7:05 AM EST 6:58 PM EST
Astronomical Twilight 6:30 AM EST 7:33 PM EST
Moon 11:08 AM EST (1/30) 1:00 AM EST (1/30)
Length of Visible Light 10h 41m
Length of Day
9h 38m
Waxing Crescent, 46% of the Moon is Illuminated
Jan 30
Waxing Crescent
Jan 30
First Quarter
Feb 7
Full
Feb 14
Last Quarter
Feb 21
New

Hourly Weather History & Observations

Time (EST) Temp. Windchill Dew Point Humidity Pressure Visibility Wind Dir Wind Speed Gust Speed Precip Events Conditions
12:15 AM 1.4 °F -6.2 °F -4.0 °F 78% 30.13 in 6.0 mi West 3.5 mph - N/A   Clear
12:35 AM -0.4 °F -12.0 °F -7.6 °F 72% 30.14 in 10.0 mi West 5.8 mph - N/A   Clear
12:55 AM 1.4 °F -8.3 °F -7.6 °F 66% 30.14 in 10.0 mi West 4.6 mph - N/A   Clear
1:15 AM 1.4 °F -9.9 °F -5.8 °F 72% 30.14 in 10.0 mi West 5.8 mph - N/A   Clear
1:35 AM -0.4 °F -12.0 °F -7.6 °F 72% 30.14 in 10.0 mi West 5.8 mph - N/A   Clear
1:55 AM 1.4 °F -9.9 °F -4.0 °F 78% 30.13 in 10.0 mi West 5.8 mph - N/A   Clear
2:15 AM 3.2 °F -7.8 °F -4.0 °F 72% 30.13 in 10.0 mi West 5.8 mph - N/A   Clear
2:35 AM 1.4 °F -8.3 °F -5.8 °F 72% 30.13 in 8.0 mi WNW 4.6 mph - N/A   Clear
2:55 AM 1.4 °F -6.2 °F -5.8 °F 72% 30.13 in 10.0 mi WNW 3.5 mph - N/A   Clear
3:15 AM 1.4 °F -6.2 °F -5.8 °F 72% 30.13 in 10.0 mi West 3.5 mph - N/A   Clear
3:35 AM 1.4 °F - -7.6 °F 66% 30.12 in 9.0 mi Calm Calm - N/A   Clear
3:55 AM -0.4 °F -8.3 °F -5.8 °F 78% 30.11 in 10.0 mi West 3.5 mph - N/A   Clear
4:15 AM 1.4 °F -8.3 °F -5.8 °F 72% 30.10 in 10.0 mi WNW 4.6 mph - N/A   Clear
4:35 AM -0.4 °F - -7.6 °F 72% 30.09 in 10.0 mi Calm Calm - N/A   Clear
4:55 AM -0.4 °F - -7.6 °F 72% 30.09 in 8.0 mi Calm Calm - N/A   Scattered Clouds
5:35 AM 1.4 °F - -5.8 °F 72% 30.08 in 5.0 mi Calm Calm - N/A   Scattered Clouds
5:55 AM 1.4 °F - -4.0 °F 78% 30.07 in 8.0 mi Calm Calm - N/A   Partly Cloudy
6:15 AM 3.2 °F - -2.2 °F 78% 30.06 in 10.0 mi Calm Calm - N/A   Mostly Cloudy
6:35 AM 5.0 °F -2.1 °F -2.2 °F 72% 30.06 in 9.0 mi WNW 3.5 mph - N/A   Overcast
6:55 AM 6.8 °F - -0.4 °F 72% 30.06 in 10.0 mi Calm Calm - N/A   Overcast
7:15 AM 6.8 °F - -0.4 °F 72% 30.06 in 10.0 mi Calm Calm - N/A   Overcast
7:35 AM 8.6 °F - 1.4 °F 73% 30.05 in 10.0 mi Calm Calm - N/A   Overcast
7:55 AM 8.6 °F - 3.2 °F 79% 30.05 in 10.0 mi Calm Calm - N/A   Overcast
8:15 AM 10.4 °F - 3.2 °F 73% 30.04 in 8.0 mi Calm Calm - N/A   Mostly Cloudy
8:35 AM 10.4 °F - 5.0 °F 79% 30.04 in 3.0 mi Calm Calm - N/A   Overcast
8:55 AM 12.2 °F - 6.8 °F 79% 30.03 in 1.0 mi Calm Calm - N/A   Overcast
9:15 AM 14.0 °F - 8.6 °F 79% 30.04 in 1.0 mi Calm Calm - N/A   Overcast
9:35 AM 17.6 °F 7.3 °F 12.2 °F 79% 30.01 in 1.8 mi SSE 8.1 mph - N/A   Overcast
9:55 AM 19.4 °F 9.5 °F 12.2 °F 74% 30.01 in 3.0 mi SSE 8.1 mph - N/A   Overcast
10:15 AM 19.4 °F 11.5 °F 14.0 °F 80% 30.01 in 1.2 mi SSE 5.8 mph - N/A   Overcast
10:35 AM 21.2 °F 12.6 °F 14.0 °F 74% 29.99 in 0.8 mi SE 6.9 mph - N/A   Overcast
11:15 AM 21.2 °F 12.6 °F 15.8 °F 80% 29.98 in 2.5 mi East 6.9 mph - N/A   Mostly Cloudy
11:35 AM 21.2 °F 12.6 °F 15.8 °F 80% 29.97 in 1.0 mi East 6.9 mph - N/A   Overcast
11:55 AM 19.4 °F 10.4 °F 14.0 °F 80% 29.97 in 1.0 mi NE 6.9 mph - N/A   Overcast
12:15 PM 19.4 °F 10.4 °F 12.2 °F 74% 29.95 in 1.0 mi ENE 6.9 mph - N/A   Overcast
12:35 PM 19.4 °F 11.5 °F 12.2 °F 74% 29.93 in 1.0 mi East 5.8 mph - N/A   Overcast
12:55 PM 19.4 °F 12.8 °F 14.0 °F 80% 29.92 in 3.0 mi ENE 4.6 mph - N/A   Overcast
1:15 PM 23.0 °F 13.1 °F 17.6 °F 80% 29.89 in 9.0 mi SE 9.2 mph - N/A   Overcast
1:35 PM 28.4 °F 18.0 °F 21.2 °F 74% 29.88 in 10.0 mi SE 12.7 mph - N/A   Overcast
1:55 PM 28.4 °F 15.4 °F 21.2 °F 74% 29.86 in 10.0 mi SE 19.6 mph - N/A   Overcast
2:15 PM 28.4 °F 16.2 °F 21.2 °F 74% 29.85 in 10.0 mi SE 17.3 mph 21.9 mph N/A   Overcast
2:35 PM 28.4 °F 16.2 °F 21.2 °F 74% 29.83 in 7.0 mi SE 17.3 mph 24.2 mph N/A   Overcast
2:55 PM 28.4 °F 16.6 °F 21.2 °F 74% 29.82 in 9.0 mi SE 16.1 mph 21.9 mph N/A   Overcast
3:15 PM 28.4 °F 17.0 °F 21.2 °F 74% 29.81 in 10.0 mi SE 15.0 mph 20.7 mph N/A   Overcast
3:35 PM 28.4 °F 16.2 °F 21.2 °F 74% 29.82 in 10.0 mi SE 17.3 mph 23.0 mph N/A   Overcast
3:55 PM 28.4 °F 16.6 °F 19.4 °F 69% 29.81 in 10.0 mi SE 16.1 mph 21.9 mph N/A   Overcast
4:15 PM 28.4 °F 18.5 °F 19.4 °F 69% 29.81 in 10.0 mi SE 11.5 mph - N/A   Overcast
4:35 PM 28.4 °F 18.0 °F 19.4 °F 69% 29.81 in 10.0 mi SSE 12.7 mph 17.3 mph N/A   Overcast
4:55 PM 28.4 °F 18.5 °F 19.4 °F 69% 29.80 in 10.0 mi SE 11.5 mph - N/A   Overcast
5:15 PM 28.4 °F 18.5 °F 21.2 °F 74% 29.79 in 10.0 mi SE 11.5 mph 18.4 mph N/A   Overcast
5:35 PM 28.4 °F 18.5 °F 21.2 °F 74% 29.79 in 10.0 mi SE 11.5 mph 18.4 mph N/A   Overcast
5:55 PM 28.4 °F 18.5 °F 21.2 °F 74% 29.79 in 10.0 mi SE 11.5 mph - N/A   Overcast
6:15 PM 30.2 °F 21.3 °F 21.2 °F 69% 29.80 in 10.0 mi SE 10.4 mph - N/A   Overcast
6:35 PM 30.2 °F 21.9 °F 21.2 °F 69% 29.81 in 10.0 mi SE 9.2 mph - N/A   Overcast
6:55 PM 30.2 °F 22.6 °F 21.2 °F 69% 29.81 in 10.0 mi SE 8.1 mph - N/A   Overcast
7:35 PM 30.2 °F 21.9 °F 21.2 °F 69% 29.82 in 10.0 mi ESE 9.2 mph - N/A   Overcast
7:55 PM 30.2 °F 20.8 °F 23.0 °F 75% 29.80 in 10.0 mi SE 11.5 mph - N/A   Overcast
8:15 PM 30.2 °F 21.3 °F 23.0 °F 75% 29.80 in 10.0 mi ESE 10.4 mph - N/A   Overcast
8:35 PM 30.2 °F 20.8 °F 23.0 °F 75% 29.79 in 10.0 mi SE 11.5 mph - N/A   Overcast
8:55 PM 30.2 °F 22.6 °F 24.8 °F 80% 29.79 in 10.0 mi SE 8.1 mph - N/A   Overcast
9:35 PM 32.0 °F 24.8 °F 24.8 °F 75% 29.79 in 10.0 mi SE 8.1 mph - N/A   Overcast
9:55 PM 32.0 °F 24.8 °F 24.8 °F 75% 29.79 in 10.0 mi SE 8.1 mph - N/A   Scattered Clouds
10:15 PM 32.0 °F 25.6 °F 24.8 °F 75% 29.78 in 10.0 mi SE 6.9 mph - N/A   Clear
10:35 PM 32.0 °F 27.5 °F 24.8 °F 75% 29.78 in 10.0 mi South 4.6 mph - 0.01 in   Clear
10:55 PM 32.0 °F 27.5 °F 24.8 °F 75% 29.78 in 8.0 mi South 4.6 mph - 0.01 in   Clear
11:15 PM 30.2 °F 25.4 °F 24.8 °F 80% 29.78 in 7.0 mi SSW 4.6 mph - N/A   Clear
11:55 PM 30.2 °F - 24.8 °F 80% 29.77 in 5.0 mi Calm Calm - N/A   Clear